Time,TemperatureF,DewpointF,PressureIn,WindDirection,WindDirectionDegrees,WindSpeedMPH,WindSpeedGustMPH,Humidity,HourlyPrecipIn,Conditions,Clouds,dailyrainin,SoftwareType,DateUTC
2013-08-31 00:14:00,81.0,71.0,29.95,South,187,5.0,11.0,69,-99.99,,,-99.99,,2013-08-31 04:14:00,
2013-08-31 00:24:00,82.0,72.0,29.95,SSW,192,3.0,7.0,71,-99.99,,,-99.99,,2013-08-31 04:24:00,
2013-08-31 00:44:00,81.0,71.0,29.95,South,179,6.0,9.0,71,-99.99,,,-99.99,,2013-08-31 04:44:00,
2013-08-31 00:54:00,81.0,71.0,29.95,South,181,5.0,10.0,72,-99.99,,,-99.99,,2013-08-31 04:54:00,
2013-08-31 01:13:00,81.0,71.0,29.95,South,186,4.0,8.0,71,-99.99,,,-99.99,,2013-08-31 05:13:00,
2013-08-31 01:53:00,81.0,71.0,29.95,South,179,5.0,10.0,73,-99.99,,,-99.99,,2013-08-31 05:53:00,
2013-08-31 02:12:00,80.0,71.0,29.95,South,177,6.0,12.0,73,-99.99,,,-99.99,,2013-08-31 06:12:00,
2013-08-31 02:22:00,80.0,72.0,29.94,SSW,193,2.0,7.0,75,-99.99,,,-99.99,,2013-08-31 06:22:00,
2013-08-31 02:42:00,80.0,72.0,29.94,South,184,2.0,7.0,76,-99.99,,,-99.99,,2013-08-31 06:42:00,
2013-08-31 02:52:00,79.0,72.0,29.94,South,180,2.0,6.0,77,-99.99,,,-99.99,,2013-08-31 06:52:00,
2013-08-31 03:12:00,79.0,72.0,29.94,South,186,1.0,4.0,78,-99.99,,,-99.99,,2013-08-31 07:12:00,
2013-08-31 03:22:00,79.0,72.0,29.94,SW,214,2.0,6.0,78,-99.99,,,-99.99,,2013-08-31 07:22:00,
2013-08-31 03:42:00,79.0,72.0,29.93,SSW,203,1.0,6.0,79,-99.99,,,-99.99,,2013-08-31 07:42:00,
2013-08-31 03:52:00,78.0,71.0,29.93,SW,233,1.0,3.0,80,-99.99,,,-99.99,,2013-08-31 07:52:00,
2013-08-31 04:12:00,78.0,72.0,29.93,SSW,201,1.0,4.0,80,-99.99,,,-99.99,,2013-08-31 08:12:00,
2013-08-31 04:22:00,78.0,72.0,29.93,SSW,201,1.0,4.0,80,-99.99,,,-99.99,,2013-08-31 08:22:00,
2013-08-31 04:52:00,77.0,71.0,29.93,South,178,1.0,2.0,82,-99.99,,,-99.99,,2013-08-31 08:52:00,
2013-08-31 05:12:00,77.0,72.0,29.92,South,170,1.0,2.0,83,-99.99,,,-99.99,,2013-08-31 09:12:00,
2013-08-31 05:23:00,77.0,72.0,29.92,South,174,1.0,2.0,84,-99.99,,,-99.99,,2013-08-31 09:23:00,
2013-08-31 05:44:00,76.0,72.0,29.92,South,181,1.0,4.0,84,-99.99,,,-99.99,,2013-08-31 09:44:00,
2013-08-31 05:53:00,77.0,72.0,29.92,SSW,210,2.0,3.0,85,-99.99,,,-99.99,,2013-08-31 09:53:00,
2013-08-31 06:13:00,77.0,72.0,29.92,SSE,167,3.0,4.0,85,-99.99,,,-99.99,,2013-08-31 10:13:00,
2013-08-31 06:53:00,76.0,72.0,29.93,SSE,162,3.0,4.0,87,-99.99,,,-99.99,,2013-08-31 10:53:00,
2013-08-31 07:12:00,76.0,72.0,29.93,SSE,164,3.0,5.0,87,-99.99,,,-99.99,,2013-08-31 11:12:00,
2013-08-31 07:52:00,76.0,71.0,29.94,South,169,3.0,4.0,86,-99.99,,,-99.99,,2013-08-31 11:52:00,
2013-08-31 08:12:00,77.0,72.0,29.95,South,177,3.0,5.0,84,-99.99,,,-99.99,,2013-08-31 12:12:00,
2013-08-31 08:22:00,79.0,73.0,29.95,ESE,111,1.0,2.0,80,-99.99,,,-99.99,,2013-08-31 12:22:00,
2013-08-31 08:32:00,79.0,73.0,29.95,ESE,111,1.0,2.0,80,-99.99,,,-99.99,,2013-08-31 12:32:00,
2013-08-31 08:52:00,81.0,74.0,29.96,SSW,211,1.0,4.0,77,-99.99,,,-99.99,,2013-08-31 12:52:00,
2013-08-31 09:11:00,81.0,72.0,29.96,SSW,198,2.0,5.0,74,-99.99,,,-99.99,,2013-08-31 13:11:00,
2013-08-31 09:22:00,83.0,74.0,29.96,SSW,203,1.0,3.0,73,-99.99,,,-99.99,,2013-08-31 13:22:00,
2013-08-31 09:42:00,84.0,74.0,29.96,South,186,2.0,5.0,72,-99.99,,,-99.99,,2013-08-31 13:42:00,
2013-08-31 09:52:00,84.0,74.0,29.96,SSW,204,2.0,7.0,70,-99.99,,,-99.99,,2013-08-31 13:52:00,
2013-08-31 10:12:00,84.0,74.0,29.96,SSW,201,3.0,9.0,69,-99.99,,,-99.99,,2013-08-31 14:12:00,
2013-08-31 10:22:00,85.0,73.0,29.97,SSW,194,3.0,10.0,67,-99.99,,,-99.99,,2013-08-31 14:22:00,
2013-08-31 10:32:00,85.0,73.0,29.97,SSW,194,3.0,10.0,67,-99.99,,,-99.99,,2013-08-31 14:32:00,
2013-08-31 10:52:00,86.0,72.0,29.97,South,189,2.0,7.0,61,-99.99,,,-99.99,,2013-08-31 14:52:00,
2013-08-31 11:12:00,86.0,71.0,29.97,South,185,3.0,8.0,60,-99.99,,,-99.99,,2013-08-31 15:12:00,
2013-08-31 11:55:00,84.0,74.0,29.98,SSE,154,7.0,12.0,70,-99.99,,,-99.99,,2013-08-31 15:55:00,
2013-08-31 12:14:00,84.0,74.0,29.98,SSE,151,7.0,11.0,71,-99.99,,,-99.99,,2013-08-31 16:14:00,
2013-08-31 12:44:00,84.0,73.0,29.98,SSE,152,9.0,14.0,70,-99.99,,,-99.99,,2013-08-31 16:44:00,
2013-08-31 12:53:00,85.0,74.0,29.98,SSE,147,9.0,13.0,68,-99.99,,,-99.99,,2013-08-31 16:53:00,
2013-08-31 13:13:00,85.0,74.0,29.97,SSE,152,10.0,14.0,69,-99.99,,,-99.99,,2013-08-31 17:13:00,
2013-08-31 13:53:00,85.0,73.0,29.96,SE,138,10.0,15.0,66,-99.99,,,-99.99,,2013-08-31 17:53:00,
2013-08-31 14:13:00,86.0,73.0,29.96,SE,136,10.0,17.0,65,-99.99,,,-99.99,,2013-08-31 18:13:00,
2013-08-31 14:22:00,85.0,73.0,29.96,SSE,151,11.0,17.0,67,-99.99,,,-99.99,,2013-08-31 18:22:00,
2013-08-31 14:42:00,84.0,73.0,29.96,SSE,151,10.0,17.0,70,-99.99,,,-99.99,,2013-08-31 18:42:00,
2013-08-31 14:52:00,85.0,73.0,29.96,SSE,148,11.0,16.0,67,-99.99,,,-99.99,,2013-08-31 18:52:00,
2013-08-31 15:12:00,85.0,74.0,29.95,SSE,153,11.0,17.0,69,-99.99,,,-99.99,,2013-08-31 19:12:00,
2013-08-31 15:22:00,84.0,74.0,29.95,SSE,157,10.0,17.0,71,-99.99,,,-99.99,,2013-08-31 19:22:00,
2013-08-31 15:42:00,83.0,74.0,29.94,SSE,151,11.0,15.0,72,-99.99,,,-99.99,,2013-08-31 19:42:00,
2013-08-31 15:52:00,83.0,75.0,29.94,SE,144,11.0,16.0,74,-99.99,,,-99.99,,2013-08-31 19:52:00,
2013-08-31 16:12:00,84.0,74.0,29.93,SSE,152,11.0,16.0,71,-99.99,,,-99.99,,2013-08-31 20:12:00,
2013-08-31 16:53:00,84.0,75.0,29.92,SSE,152,13.0,21.0,72,-99.99,,,-99.99,,2013-08-31 20:53:00,
2013-08-31 17:12:00,85.0,76.0,29.92,SSE,158,13.0,20.0,72,-99.99,,,-99.99,,2013-08-31 21:12:00,
2013-08-31 17:22:00,84.0,75.0,29.91,SSE,157,12.0,19.0,74,-99.99,,,-99.99,,2013-08-31 21:22:00,
2013-08-31 17:35:00,84.0,75.0,29.91,SSE,157,12.0,19.0,74,-99.99,,,-99.99,,2013-08-31 21:35:00,
2013-08-31 17:54:00,83.0,75.0,29.93,South,169,10.0,18.0,76,-99.99,,,-99.99,,2013-08-31 21:54:00,
2013-08-31 18:13:00,83.0,75.0,29.94,SSE,162,10.0,17.0,76,-99.99,,,-99.99,,2013-08-31 22:13:00,
2013-08-31 18:24:00,83.0,75.0,29.93,South,172,10.0,15.0,76,-99.99,,,-99.99,,2013-08-31 22:24:00,
2013-08-31 18:32:00,83.0,75.0,29.93,South,172,10.0,15.0,76,-99.99,,,-99.99,,2013-08-31 22:32:00,
2013-08-31 18:53:00,83.0,75.0,29.94,South,170,8.0,16.0,77,-99.99,,,-99.99,,2013-08-31 22:53:00,
2013-08-31 19:12:00,82.0,75.0,29.94,South,180,5.0,10.0,78,-99.99,,,-99.99,,2013-08-31 23:12:00,
2013-08-31 19:23:00,78.0,71.0,29.96,NW,307,11.0,24.0,77,-99.99,,,-99.99,,2013-08-31 23:23:00,
2013-08-31 19:33:00,78.0,71.0,29.96,NW,307,11.0,24.0,77,-99.99,,,-99.99,,2013-08-31 23:33:00,
2013-08-31 19:52:00,74.0,70.0,29.96,NW,312,7.0,13.0,85,-99.99,,,-99.99,,2013-08-31 23:52:00,
2013-08-31 20:11:00,74.0,70.0,29.96,West,275,4.0,8.0,86,-99.99,,,-99.99,,2013-09-01 00:11:00,
2013-08-31 20:52:00,75.0,70.0,29.95,SSW,193,1.0,2.0,83,-99.99,,,-99.99,,2013-09-01 00:52:00,
2013-08-31 21:11:00,75.0,70.0,29.94,SSE,150,1.0,4.0,83,-99.99,,,-99.99,,2013-09-01 01:11:00,
2013-08-31 21:52:00,75.0,70.0,29.96,SSE,167,3.0,4.0,85,-99.99,,,-99.99,,2013-09-01 01:52:00,
2013-08-31 22:12:00,75.0,70.0,29.96,South,169,3.0,5.0,85,-99.99,,,-99.99,,2013-09-01 02:12:00,
2013-08-31 22:53:00,76.0,70.0,29.98,South,177,1.0,3.0,82,-99.99,,,-99.99,,2013-09-01 02:53:00,
2013-08-31 23:12:00,76.0,71.0,29.98,SW,224,1.0,3.0,83,-99.99,,,-99.99,,2013-09-01 03:12:00,
2013-08-31 23:23:00,77.0,70.0,29.98,WNW,300,2.0,4.0,81,-99.99,,,-99.99,,2013-09-01 03:23:00,
2013-08-31 23:35:00,77.0,70.0,29.98,WNW,300,2.0,4.0,81,-99.99,,,-99.99,,2013-09-01 03:35:00,
2013-08-31 23:54:00,76.0,70.0,29.98,ESE,115,1.0,2.0,81,-99.99,,,-99.99,,2013-09-01 03:54:00,